Вернуться в каталог

DELTA 1 DEB

АктивенSSO
NORAD 21602·DEBRIS·🇺🇸 United States

Запущен Jun 12, 1975 с Vandenberg Space Force Base

Loading…

Ближайшие Пролёты (ближайшие 24 часа)

TLE

СвежийSource: Space-Track

Эпоха: Sep 14, 2026, 00:42 UTC

1 21602U 75052HW  26257.02969975  .00001520  00000-0  20616-2 0  9994
2 21602  99.6379 286.8559 0073219 301.3981  87.4610 13.59973485715278

Отслеживайте DELTA 1 DEB в реальном времени с AllMySat

Download on the App Store